Location: Alto Pass Reservoir
(37.5801°N, 89.3084°W)
Time: 08:48:22
(UTC+00:00)

CZ-4B R/B - Visible Passes

Search period start: 26 June 2022 00:00
Search period end: 06 July 2022 00:00
Orbit: 362 x 416 km, 97.6° (Epoch: 25 June)

Date Brightness Start Highest point End Pass type
(mag) Time Alt. Az. Time Alt. Az. Time Alt. Az.
26 Jun 3.1 02:58:37 10° NNW 03:01:09 28° WNW 03:03:39 10° SW visible
27 Jun 1.9 02:05:09 10° NE 02:07:46 30° E 02:10:20 10° SSE visible
28 Jun 1.8 02:42:56 10° N 02:45:45 52° WNW 02:48:33 10° SSW visible
29 Jun 2.7 01:50:10 10° NE 01:52:10 17° E 01:54:10 10° SE visible
29 Jun 4.1 03:21:57 10° NW 03:23:31 14° WNW 03:25:04 10° WSW visible
30 Jun 0.8 02:27:17 10° NNE 02:30:10 76° ESE 02:33:01 10° S visible
01 Jul 3.4 03:05:33 10° NNW 03:07:55 23° WNW 03:10:17 10° SW visible
02 Jul 1.6 02:11:39 10° NNE 02:14:21 36° E 02:17:04 10° S visible
03 Jul 2.2 02:49:22 10° N 02:52:07 43° WNW 02:54:52 10° SSW visible
04 Jul 2.5 01:56:08 10° NE 01:58:22 20° E 02:00:36 10° SSE visible
04 Jul 4.2 03:28:28 10° NW 03:29:39 12° WNW 03:30:51 10° W visible
05 Jul 0.9 02:33:14 10° NNE 02:36:07 89° WNW 02:39:01 10° SSW visible
